Date,TemperatureHighF,TemperatureAvgF,TemperatureLowF,DewpointHighF,DewpointAvgF,DewpointLowF,HumidityHigh,HumidityAvg,HumidityLow,PressureMaxIn,PressureMinIn,WindSpeedMaxMPH,WindSpeedAvgMPH,GustSpeedMaxMPH,PrecipitationSumIn
2013-12-1,49.2,39.8,30.6,35.0,32.1,29.0,94,75,55,30.16,29.96,6,1,7,0.00
2013-12-2,46.4,39.1,32.8,39.0,34.7,30.0,95,85,71,29.96,29.69,5,1,10,0.00
2013-12-3,50.8,44.8,38.2,49.0,43.9,37.0,99,97,93,29.70,29.60,8,3,12,0.01
2013-12-4,55.0,47.0,30.5,53.0,45.6,27.0,99,95,82,29.86,29.50,17,4,23,0.01
2013-12-5,30.2,22.5,19.1,26.0,15.0,11.0,85,73,65,30.36,29.88,15,8,24,0.01
2013-12-6,19.1,15.3,10.4,12.0,7.6,5.0,79,72,61,30.68,30.36,16,7,19,0.00
2013-12-7,20.9,12.7,5.8,7.0,4.3,2.0,85,70,45,30.80,30.59,11,4,13,0.00
2013-12-8,24.3,20.7,14.4,23.0,16.6,8.0,94,84,72,30.56,30.07,12,3,18,0.00
2013-12-9,23.5,17.1,9.9,21.0,11.4,4.0,89,78,70,30.34,30.09,14,6,21,0.00
2013-12-10,28.5,18.8,8.0,15.0,9.0,3.0,83,66,52,30.36,30.18,18,4,26,0.00
2013-12-11,25.0,15.7,3.2,18.0,7.3,-4.0,82,70,51,30.70,30.30,21,5,26,0.00
2013-12-12,36.8,20.2,3.2,18.0,9.0,-2.0,85,64,45,30.66,30.28,13,4,16,0.00
2013-12-13,36.7,29.3,22.3,31.0,22.6,14.0,97,77,53,30.27,30.03,8,3,12,0.00
2013-12-14,31.1,28.0,19.8,31.0,26.5,17.0,98,94,87,30.16,29.94,14,2,17,0.00
2013-12-15,22.3,18.1,14.5,16.0,13.9,11.0,91,84,71,30.20,30.12,13,4,15,0.00
2013-12-16,22.6,19.3,15.5,22.0,17.1,13.0,96,91,85,30.18,30.06,11,2,17,0.00
2013-12-17,36.7,27.3,19.1,29.0,21.1,13.0,95,79,57,30.28,30.15,17,5,22,0.15
2013-12-18,40.7,31.0,18.4,31.0,21.5,13.0,86,69,48,30.27,29.89,19,6,22,0.14
2013-12-19,47.6,42.3,35.0,44.0,38.0,30.0,94,85,74,29.91,29.76,7,5,11,0.15
2013-12-20,46.4,37.0,28.1,46.0,36.3,27.0,98,97,93,29.89,29.72,13,4,15,0.10
2013-12-21,31.5,28.8,27.1,31.0,27.8,26.0,97,96,94,29.90,29.64,7,4,11,0.00
2013-12-22,31.6,27.4,17.8,31.0,25.9,15.0,98,94,88,30.30,29.66,9,4,13,0.00
2013-12-23,18.8,11.5,4.1,16.0,7.2,-2.0,90,82,74,30.63,30.31,11,5,14,0.00
2013-12-24,18.5,7.5,-1.2,13.0,1.8,-7.0,84,77,73,30.69,30.43,8,4,16,0.00
2013-12-30,19.2,16.0,12.4,10.0,0.0,-99.9,67,57,50,30.34,30.25,6,-20,9,0.00
2013-12-31,31.2,21.2,12.6,22.0,14.9,10.0,88,77,61,30.44,30.21,8,3,14,0.00